Time,TemperatureF,DewpointF,PressureIn,WindDirection,WindDirectionDegrees,WindSpeedMPH,WindSpeedGustMPH,Humidity,HourlyPrecipIn,Conditions,Clouds,dailyrainin,SoftwareType,DateUTC
2013-05-14 00:00:00,43.3,34.5,30.24,SW,219,0.0,0.0,71,0.00,CLR,,0.00,WeatherDisplay:10.37,2013-05-14 04:00:00,
2013-05-14 00:01:00,43.2,34.1,30.24,SW,218,0.0,0.0,70,0.00,CLR,,0.00,WeatherDisplay:10.37,2013-05-14 04:01:00,
2013-05-14 00:06:00,42.9,33.8,30.24,SW,219,0.0,0.0,70,0.00,CLR,,0.00,WeatherDisplay:10.37,2013-05-14 04:06:00,
2013-05-14 00:11:00,42.6,33.9,30.24,SW,218,0.0,0.0,71,0.00,CLR,,0.00,WeatherDisplay:10.37,2013-05-14 04:11:00,
2013-05-14 00:16:00,42.3,33.9,30.24,SW,219,0.0,0.0,72,0.00,CLR,,0.00,WeatherDisplay:10.37,2013-05-14 04:16:00,
2013-05-14 00:21:00,41.9,33.9,30.24,SW,219,0.0,0.0,73,0.00,CLR,,0.00,WeatherDisplay:10.37,2013-05-14 04:21:00,
2013-05-14 00:26:00,41.6,33.9,30.24,SW,218,0.0,0.0,74,0.00,CLR,,0.00,WeatherDisplay:10.37,2013-05-14 04:26:00,
2013-05-14 00:31:00,41.4,34.1,30.24,SW,219,0.0,0.0,75,0.00,CLR,,0.00,WeatherDisplay:10.37,2013-05-14 04:31:00,
2013-05-14 00:36:00,41.3,33.6,30.25,SW,219,0.0,0.0,74,0.00,CLR,,0.00,WeatherDisplay:10.37,2013-05-14 04:36:00,
2013-05-14 00:41:00,41.2,33.5,30.25,SW,218,0.0,0.0,74,0.00,CLR,,0.00,WeatherDisplay:10.37,2013-05-14 04:41:00,
2013-05-14 00:46:00,41.1,34.1,30.25,SW,219,0.0,0.0,76,0.00,CLR,,0.00,WeatherDisplay:10.37,2013-05-14 04:46:00,
2013-05-14 00:51:00,40.9,33.6,30.24,SW,218,0.0,0.0,75,0.00,CLR,,0.00,WeatherDisplay:10.37,2013-05-14 04:51:00,
2013-05-14 00:56:00,40.9,33.2,30.24,SW,218,0.0,0.0,74,0.00,CLR,,0.00,WeatherDisplay:10.37,2013-05-14 04:56:00,
2013-05-14 01:01:00,40.7,33.4,30.24,SW,219,0.0,0.0,75,0.00,CLR,,0.00,WeatherDisplay:10.37,2013-05-14 05:01:00,
2013-05-14 01:06:00,40.6,33.0,30.24,SW,219,0.0,0.0,74,0.00,CLR,,0.00,WeatherDisplay:10.37,2013-05-14 05:06:00,
2013-05-14 01:11:00,40.5,33.5,30.24,SW,219,0.0,0.0,76,0.00,CLR,,0.00,WeatherDisplay:10.37,2013-05-14 05:11:00,
2013-05-14 01:16:00,40.4,33.4,30.24,SW,219,0.0,0.0,76,0.00,CLR,,0.00,WeatherDisplay:10.37,2013-05-14 05:16:00,
2013-05-14 01:21:00,40.2,33.2,30.25,SW,218,0.0,0.0,76,0.00,CLR,,0.00,WeatherDisplay:10.37,2013-05-14 05:21:00,
2013-05-14 01:26:00,40.1,33.5,30.25,SW,218,0.0,0.0,77,0.00,CLR,,0.00,WeatherDisplay:10.37,2013-05-14 05:26:00,
2013-05-14 01:31:00,40.0,33.4,30.25,SW,219,0.0,0.0,77,0.00,CLR,,0.00,WeatherDisplay:10.37,2013-05-14 05:31:00,
2013-05-14 01:36:00,40.0,33.4,30.25,SW,218,0.0,0.0,77,0.00,CLR,,0.00,WeatherDisplay:10.37,2013-05-14 05:36:00,
2013-05-14 01:41:00,39.9,33.6,30.25,SW,219,0.0,0.0,78,0.00,CLR,,0.00,WeatherDisplay:10.37,2013-05-14 05:41:00,
2013-05-14 01:46:00,39.8,33.2,30.25,SW,218,0.0,0.0,77,0.00,CLR,,0.00,WeatherDisplay:10.37,2013-05-14 05:46:00,
2013-05-14 01:51:00,39.7,33.4,30.25,SW,218,0.0,0.0,78,0.00,CLR,,0.00,WeatherDisplay:10.37,2013-05-14 05:51:00,
2013-05-14 01:56:00,39.6,33.3,30.25,SW,219,0.0,0.0,78,0.00,CLR,,0.00,WeatherDisplay:10.37,2013-05-14 05:56:00,
2013-05-14 02:01:00,39.4,33.4,30.25,SW,218,0.0,0.0,79,0.00,CLR,,0.00,WeatherDisplay:10.37,2013-05-14 06:01:00,
2013-05-14 02:06:00,39.3,33.0,30.25,SW,218,0.0,0.0,78,0.00,CLR,,0.00,WeatherDisplay:10.37,2013-05-14 06:06:00,
2013-05-14 02:11:00,39.3,33.3,30.25,SW,219,0.0,0.0,79,0.00,CLR,,0.00,WeatherDisplay:10.37,2013-05-14 06:11:00,
2013-05-14 02:16:00,39.2,33.2,30.25,SW,219,0.0,0.0,79,0.00,CLR,,0.00,WeatherDisplay:10.37,2013-05-14 06:16:00,
2013-05-14 02:21:00,39.1,33.1,30.24,SW,219,0.0,0.0,79,0.00,CLR,,0.00,WeatherDisplay:10.37,2013-05-14 06:21:00,
2013-05-14 02:26:00,39.1,33.1,30.24,SW,219,0.0,0.0,79,0.00,CLR,,0.00,WeatherDisplay:10.37,2013-05-14 06:26:00,
2013-05-14 02:31:00,39.1,33.5,30.24,SW,219,0.0,0.0,80,0.00,CLR,,0.00,WeatherDisplay:10.37,2013-05-14 06:31:00,
2013-05-14 02:36:00,39.0,33.0,30.24,SW,218,0.0,0.0,79,0.00,CLR,,0.00,WeatherDisplay:10.37,2013-05-14 06:36:00,
2013-05-14 02:41:00,38.9,33.3,30.24,SW,219,0.0,0.0,80,0.00,CLR,,0.00,WeatherDisplay:10.37,2013-05-14 06:41:00,
2013-05-14 02:46:00,38.9,33.3,30.24,SW,219,0.0,0.0,80,0.00,CLR,,0.00,WeatherDisplay:10.37,2013-05-14 06:46:00,
2013-05-14 02:51:00,38.9,33.3,30.24,SW,218,0.0,0.0,80,0.00,CLR,,0.00,WeatherDisplay:10.37,2013-05-14 06:51:00,
2013-05-14 02:56:00,38.8,33.2,30.24,SW,219,0.0,0.0,80,0.00,CLR,,0.00,WeatherDisplay:10.37,2013-05-14 06:56:00,
2013-05-14 03:01:00,38.7,33.1,30.24,SW,219,0.0,0.0,80,0.00,CLR,,0.00,WeatherDisplay:10.37,2013-05-14 07:01:00,
2013-05-14 03:06:00,38.7,33.1,30.25,SW,218,0.0,0.0,80,0.00,CLR,,0.00,WeatherDisplay:10.37,2013-05-14 07:06:00,
2013-05-14 03:11:00,38.7,33.1,30.25,SW,219,0.0,0.0,80,0.00,CLR,,0.00,WeatherDisplay:10.37,2013-05-14 07:11:00,
2013-05-14 03:16:00,38.7,33.4,30.25,SW,219,0.0,0.0,81,0.00,CLR,,0.00,WeatherDisplay:10.37,2013-05-14 07:16:00,
2013-05-14 03:21:00,38.6,33.6,30.25,SW,218,0.0,0.0,82,0.00,CLR,,0.00,WeatherDisplay:10.37,2013-05-14 07:21:00,
2013-05-14 03:26:00,38.6,33.6,30.25,SW,218,0.0,0.0,82,0.00,CLR,,0.00,WeatherDisplay:10.37,2013-05-14 07:26:00,
2013-05-14 03:31:00,38.7,33.4,30.25,SW,218,0.0,0.0,81,0.00,CLR,,0.00,WeatherDisplay:10.37,2013-05-14 07:31:00,
2013-05-14 03:36:00,38.7,33.4,30.25,SW,219,0.0,0.0,81,0.00,CLR,,0.00,WeatherDisplay:10.37,2013-05-14 07:36:00,
2013-05-14 03:41:00,38.7,33.4,30.25,SW,219,0.0,0.0,81,0.00,CLR,,0.00,WeatherDisplay:10.37,2013-05-14 07:41:00,
2013-05-14 03:46:00,38.7,33.4,30.25,SW,219,0.0,0.0,81,0.00,CLR,,0.00,WeatherDisplay:10.37,2013-05-14 07:46:00,
2013-05-14 03:52:00,38.7,34.0,30.25,SW,218,0.0,0.0,83,0.00,CLR,,0.00,WeatherDisplay:10.37,2013-05-14 07:52:00,
2013-05-14 03:57:00,38.6,33.6,30.25,SW,219,0.0,0.0,82,0.00,CLR,,0.00,WeatherDisplay:10.37,2013-05-14 07:57:00,
2013-05-14 04:02:00,38.5,33.5,30.25,SW,219,0.0,0.0,82,0.00,CLR,,0.00,WeatherDisplay:10.37,2013-05-14 08:02:00,
2013-05-14 04:07:00,38.4,33.4,30.25,SW,219,0.0,0.0,82,0.00,CLR,,0.00,WeatherDisplay:10.37,2013-05-14 08:07:00,
2013-05-14 04:12:00,38.3,33.3,30.25,SW,218,0.0,0.0,82,0.00,CLR,,0.00,WeatherDisplay:10.37,2013-05-14 08:12:00,
2013-05-14 04:17:00,38.3,33.6,30.25,SW,219,0.0,0.0,83,0.00,CLR,,0.00,WeatherDisplay:10.37,2013-05-14 08:17:00,
2013-05-14 04:22:00,38.2,33.8,30.24,SW,219,0.0,0.0,84,0.00,CLR,,0.00,WeatherDisplay:10.37,2013-05-14 08:22:00,
2013-05-14 04:27:00,38.1,33.1,30.25,SW,218,0.0,0.0,82,0.00,CLR,,0.00,WeatherDisplay:10.37,2013-05-14 08:27:00,
2013-05-14 04:32:00,38.1,33.4,30.25,SW,219,0.0,0.0,83,0.00,CLR,,0.00,WeatherDisplay:10.37,2013-05-14 08:32:00,
2013-05-14 04:37:00,38.0,33.3,30.25,SW,219,0.0,0.0,83,0.00,CLR,,0.00,WeatherDisplay:10.37,2013-05-14 08:37:00,
2013-05-14 04:42:00,38.0,33.6,30.25,SW,218,0.0,0.0,84,0.00,CLR,,0.00,WeatherDisplay:10.37,2013-05-14 08:42:00,
2013-05-14 04:47:00,37.9,33.8,30.25,SW,219,0.0,0.0,85,0.00,CLR,,0.00,WeatherDisplay:10.37,2013-05-14 08:47:00,
2013-05-14 04:52:00,37.9,33.2,30.25,SW,219,0.0,0.0,83,0.00,CLR,,0.00,WeatherDisplay:10.37,2013-05-14 08:52:00,
2013-05-14 04:57:00,37.9,33.2,30.25,SW,219,0.0,0.0,83,0.00,CLR,,0.00,WeatherDisplay:10.37,2013-05-14 08:57:00,
2013-05-14 05:02:00,37.8,33.4,30.25,SW,218,0.0,0.0,84,0.00,CLR,,0.00,WeatherDisplay:10.37,2013-05-14 09:02:00,
2013-05-14 05:07:00,37.8,33.4,30.25,SW,219,0.0,0.0,84,0.00,CLR,,0.00,WeatherDisplay:10.37,2013-05-14 09:07:00,
2013-05-14 05:12:00,37.7,33.3,30.25,SW,218,0.0,0.0,84,0.00,CLR,,0.00,WeatherDisplay:10.37,2013-05-14 09:12:00,
2013-05-14 05:17:00,37.7,33.6,30.25,SW,218,0.0,0.0,85,0.00,CLR,,0.00,WeatherDisplay:10.37,2013-05-14 09:17:00,
2013-05-14 05:22:00,37.6,33.2,30.25,SW,218,0.0,0.0,84,0.00,CLR,,0.00,WeatherDisplay:10.37,2013-05-14 09:22:00,
2013-05-14 05:27:00,37.6,33.5,30.25,SW,219,0.0,0.0,85,0.00,CLR,,0.00,WeatherDisplay:10.37,2013-05-14 09:27:00,
2013-05-14 05:32:00,37.6,33.8,30.25,SW,219,0.0,0.0,86,0.00,CLR,,0.00,WeatherDisplay:10.37,2013-05-14 09:32:00,
2013-05-14 05:37:00,37.6,33.5,30.25,SW,219,0.0,0.0,85,0.00,CLR,,0.00,WeatherDisplay:10.37,2013-05-14 09:37:00,
2013-05-14 05:42:00,37.6,33.5,30.25,SW,219,0.0,0.0,85,0.00,CLR,,0.00,WeatherDisplay:10.37,2013-05-14 09:42:00,
2013-05-14 05:47:00,37.6,33.8,30.25,SW,218,0.0,0.0,86,0.00,CLR,,0.00,WeatherDisplay:10.37,2013-05-14 09:47:00,
2013-05-14 05:52:00,37.7,33.3,30.26,SW,218,0.0,0.0,84,0.00,CLR,,0.00,WeatherDisplay:10.37,2013-05-14 09:52:00,
2013-05-14 05:57:00,37.6,33.5,30.26,SW,219,0.0,0.0,85,0.00,CLR,,0.00,WeatherDisplay:10.37,2013-05-14 09:57:00,
2013-05-14 06:02:00,37.5,33.4,30.26,SW,219,0.0,0.0,85,0.00,CLR,,0.00,WeatherDisplay:10.37,2013-05-14 10:02:00,
2013-05-14 06:07:00,37.5,33.4,30.26,SW,219,0.0,0.0,85,0.00,CLR,,0.00,WeatherDisplay:10.37,2013-05-14 10:07:00,
2013-05-14 06:12:00,37.5,33.4,30.26,SW,218,0.0,0.0,85,0.00,CLR,,0.00,WeatherDisplay:10.37,2013-05-14 10:12:00,
2013-05-14 06:17:00,37.4,33.6,30.26,SW,218,0.0,0.0,86,0.00,CLR,,0.00,WeatherDisplay:10.37,2013-05-14 10:17:00,
2013-05-14 06:22:00,37.4,33.6,30.25,SW,219,0.0,0.0,86,0.00,CLR,,0.00,WeatherDisplay:10.37,2013-05-14 10:22:00,
2013-05-14 06:27:00,37.4,33.3,30.25,SW,218,0.0,0.0,85,0.00,CLR,,0.00,WeatherDisplay:10.37,2013-05-14 10:27:00,
2013-05-14 06:32:00,37.3,33.5,30.25,SW,219,0.0,0.0,86,0.00,CLR,,0.00,WeatherDisplay:10.37,2013-05-14 10:32:00,
2013-05-14 06:37:00,37.2,33.4,30.26,SW,218,0.0,0.0,86,0.00,CLR,,0.00,WeatherDisplay:10.37,2013-05-14 10:37:00,
2013-05-14 06:42:00,37.2,33.4,30.26,SW,219,0.0,0.0,86,0.00,CLR,,0.00,WeatherDisplay:10.37,2013-05-14 10:42:00,
2013-05-14 06:47:00,37.2,33.7,30.26,SW,219,0.0,0.0,87,0.00,CLR,,0.00,WeatherDisplay:10.37,2013-05-14 10:47:00,
2013-05-14 06:52:00,37.4,33.9,30.26,SW,219,0.0,0.0,87,0.00,CLR,,0.00,WeatherDisplay:10.37,2013-05-14 10:52:00,
2013-05-14 06:57:00,37.5,33.7,30.26,SW,219,0.0,0.0,86,0.00,CLR,,0.00,WeatherDisplay:10.37,2013-05-14 10:57:00,
2013-05-14 07:02:00,37.7,33.9,30.26,SW,218,0.0,0.0,86,0.00,CLR,,0.00,WeatherDisplay:10.37,2013-05-14 11:02:00,
2013-05-14 07:07:00,38.0,33.9,30.26,SW,219,0.0,0.0,85,0.00,CLR,,0.00,WeatherDisplay:10.37,2013-05-14 11:07:00,
2013-05-14 07:12:00,38.1,34.0,30.26,SW,218,0.0,0.0,85,0.00,CLR,,0.00,WeatherDisplay:10.37,2013-05-14 11:12:00,
2013-05-14 07:17:00,38.2,34.1,30.26,SW,219,0.0,0.0,85,0.00,CLR,,0.00,WeatherDisplay:10.37,2013-05-14 11:17:00,
2013-05-14 07:22:00,38.4,34.3,30.27,SW,219,0.0,0.0,85,0.00,CLR,,0.00,WeatherDisplay:10.37,2013-05-14 11:22:00,
2013-05-14 07:27:00,38.5,34.1,30.27,SW,219,0.0,0.0,84,0.00,CLR,,0.00,WeatherDisplay:10.37,2013-05-14 11:27:00,
2013-05-14 07:32:00,38.8,34.7,30.27,SW,219,0.0,0.0,85,0.00,CLR,,0.00,WeatherDisplay:10.37,2013-05-14 11:32:00,
2013-05-14 07:37:00,39.3,35.2,30.27,SW,219,0.0,0.0,85,0.00,CLR,,0.00,WeatherDisplay:10.37,2013-05-14 11:37:00,
2013-05-14 07:42:00,39.8,36.0,30.27,SW,219,0.0,0.0,86,0.00,CLR,,0.00,WeatherDisplay:10.37,2013-05-14 11:42:00,
2013-05-14 07:47:00,40.2,36.1,30.27,SW,218,0.0,0.0,85,0.00,CLR,,0.00,WeatherDisplay:10.37,2013-05-14 11:47:00,
2013-05-14 07:52:00,40.5,36.3,30.27,SW,219,0.0,0.0,85,0.00,CLR,,0.00,WeatherDisplay:10.37,2013-05-14 11:52:00,
2013-05-14 07:57:00,41.0,36.5,30.27,SSW,202,0.1,1.1,84,0.00,CLR,,0.00,WeatherDisplay:10.37,2013-05-14 11:57:00,
2013-05-14 08:02:00,41.3,36.8,30.27,ESE,123,0.4,2.3,84,0.00,CLR,,0.00,WeatherDisplay:10.37,2013-05-14 12:02:00,
2013-05-14 08:07:00,42.0,37.2,30.28,ESE,123,0.0,1.1,83,0.00,CLR,,0.00,WeatherDisplay:10.37,2013-05-14 12:07:00,
2013-05-14 08:12:00,43.1,37.0,30.28,ESE,123,0.0,1.1,79,0.00,CLR,,0.00,WeatherDisplay:10.37,2013-05-14 12:12:00,
2013-05-14 08:17:00,44.3,38.2,30.28,ESE,123,0.4,1.1,79,0.00,CLR,,0.00,WeatherDisplay:10.37,2013-05-14 12:17:00,
2013-05-14 08:22:00,45.6,37.8,30.27,ESE,123,0.0,1.1,74,0.00,CLR,,0.00,WeatherDisplay:10.37,2013-05-14 12:22:00,
2013-05-14 08:27:00,46.9,39.0,30.27,ESE,123,0.3,1.1,74,0.00,CLR,,0.00,WeatherDisplay:10.37,2013-05-14 12:27:00,
2013-05-14 08:32:00,47.4,39.5,30.27,ESE,123,0.0,0.0,74,0.00,CLR,,0.00,WeatherDisplay:10.37,2013-05-14 12:32:00,
2013-05-14 08:37:00,48.2,40.3,30.28,ESE,123,0.0,0.0,74,0.00,CLR,,0.00,WeatherDisplay:10.37,2013-05-14 12:37:00,
2013-05-14 08:42:00,49.0,40.4,30.28,ESE,122,0.0,1.1,72,0.00,CLR,,0.00,WeatherDisplay:10.37,2013-05-14 12:42:00,
2013-05-14 08:47:00,49.4,38.9,30.28,ESE,122,0.0,2.3,67,0.00,CLR,,0.00,WeatherDisplay:10.37,2013-05-14 12:47:00,
2013-05-14 08:52:00,49.7,40.3,30.27,ESE,122,0.0,1.1,70,0.00,CLR,,0.00,WeatherDisplay:10.37,2013-05-14 12:52:00,
2013-05-14 08:57:00,50.4,39.1,30.27,ESE,121,0.1,1.1,65,0.00,CLR,,0.00,WeatherDisplay:10.37,2013-05-14 12:57:00,
2013-05-14 09:02:00,51.2,39.4,30.27,ESE,121,0.0,0.0,64,0.00,CLR,,0.00,WeatherDisplay:10.37,2013-05-14 13:02:00,
2013-05-14 09:07:00,51.5,40.9,30.27,ESE,122,0.0,0.0,67,0.00,CLR,,0.00,WeatherDisplay:10.37,2013-05-14 13:07:00,
2013-05-14 09:12:00,51.7,39.9,30.27,ESE,121,0.0,0.0,64,0.00,CLR,,0.00,WeatherDisplay:10.37,2013-05-14 13:12:00,
2013-05-14 09:17:00,52.2,39.6,30.27,ESE,122,0.2,1.1,62,0.00,CLR,,0.00,WeatherDisplay:10.37,2013-05-14 13:17:00,
2013-05-14 09:22:00,52.3,40.9,30.27,ESE,122,0.0,1.2,65,0.00,CLR,,0.00,WeatherDisplay:10.37,2013-05-14 13:22:00,
2013-05-14 09:27:00,53.3,41.0,30.27,ESE,122,0.0,1.1,63,0.00,CLR,,0.00,WeatherDisplay:10.37,2013-05-14 13:27:00,
2013-05-14 09:32:00,54.0,40.0,30.27,NE,40,0.3,2.4,59,0.00,CLR,,0.00,WeatherDisplay:10.37,2013-05-14 13:32:00,
2013-05-14 09:37:00,55.1,39.7,30.26,ENE,71,0.9,2.4,56,0.00,CLR,,0.00,WeatherDisplay:10.37,2013-05-14 13:37:00,
2013-05-14 09:42:00,55.8,42.1,30.27,NE,44,0.9,3.5,60,0.00,CLR,,0.00,WeatherDisplay:10.37,2013-05-14 13:42:00,
2013-05-14 09:47:00,56.0,41.4,30.27,ENE,58,1.5,2.3,58,0.00,CLR,,0.00,WeatherDisplay:10.37,2013-05-14 13:47:00,
2013-05-14 09:52:00,56.7,41.6,30.26,NE,40,4.3,4.3,57,0.00,CLR,,0.00,WeatherDisplay:10.37,2013-05-14 13:52:00,
2013-05-14 09:57:00,57.6,40.6,30.26,ENE,62,1.8,3.5,53,0.00,CLR,,0.00,WeatherDisplay:10.37,2013-05-14 13:57:00,
2013-05-14 10:02:00,57.9,41.8,30.26,ENE,73,0.6,3.5,55,0.00,CLR,,0.00,WeatherDisplay:10.37,2013-05-14 14:02:00,
2013-05-14 10:07:00,57.7,40.2,30.26,NE,36,4.9,6.1,52,0.00,CLR,,0.00,WeatherDisplay:10.37,2013-05-14 14:07:00,
2013-05-14 10:12:00,58.7,36.2,30.27,NE,52,0.3,3.5,43,0.00,CLR,,0.00,WeatherDisplay:10.37,2013-05-14 14:12:00,
2013-05-14 10:17:00,59.4,41.8,30.27,NE,51,1.4,2.3,52,0.00,CLR,,0.00,WeatherDisplay:10.37,2013-05-14 14:17:00,
2013-05-14 10:23:00,58.8,35.7,30.27,SSW,198,0.1,4.6,42,0.00,CLR,,0.00,WeatherDisplay:10.37,2013-05-14 14:23:00,
2013-05-14 10:28:00,59.1,36.6,30.27,SSW,193,0.0,0.0,43,0.00,CLR,,0.00,WeatherDisplay:10.37,2013-05-14 14:28:00,
2013-05-14 10:33:00,59.2,40.0,30.27,South,169,0.4,1.2,49,0.00,CLR,,0.00,WeatherDisplay:10.37,2013-05-14 14:33:00,
2013-05-14 10:38:00,60.4,40.6,30.27,ENE,59,5.6,6.9,48,0.00,CLR,,0.00,WeatherDisplay:10.37,2013-05-14 14:38:00,
2013-05-14 10:43:00,61.0,40.6,30.27,NE,52,5.2,6.9,47,0.00,CLR,,0.00,WeatherDisplay:10.37,2013-05-14 14:43:00,
2013-05-14 10:48:00,61.4,38.1,30.27,NE,44,5.5,9.2,42,0.00,CLR,,0.00,WeatherDisplay:10.37,2013-05-14 14:48:00,
2013-05-14 10:53:00,61.4,38.1,30.27,ENE,57,4.4,5.8,42,0.00,CLR,,0.00,WeatherDisplay:10.37,2013-05-14 14:53:00,
2013-05-14 10:58:00,61.6,38.3,30.27,NE,40,7.5,9.2,42,0.00,CLR,,0.00,WeatherDisplay:10.37,2013-05-14 14:58:00,
2013-05-14 11:03:00,61.5,40.5,30.27,ENE,66,2.0,3.7,46,0.00,CLR,,0.00,WeatherDisplay:10.37,2013-05-14 15:03:00,
2013-05-14 11:08:00,61.5,38.8,30.27,ENE,61,3.8,5.8,43,0.00,CLR,,0.00,WeatherDisplay:10.37,2013-05-14 15:08:00,
2013-05-14 11:13:00,61.1,37.8,30.27,ENE,69,3.9,5.8,42,0.00,CLR,,0.00,WeatherDisplay:10.37,2013-05-14 15:13:00,
2013-05-14 11:18:00,61.2,38.5,30.27,NE,44,5.7,5.8,43,0.00,CLR,,0.00,WeatherDisplay:10.37,2013-05-14 15:18:00,
2013-05-14 11:23:00,61.9,41.4,30.27,ENE,62,2.7,4.6,47,0.00,CLR,,0.00,WeatherDisplay:10.37,2013-05-14 15:23:00,
2013-05-14 11:28:00,62.3,40.1,30.27,ENE,60,3.2,4.9,44,0.00,CLR,,0.00,WeatherDisplay:10.37,2013-05-14 15:28:00,
2013-05-14 11:33:00,62.8,42.8,30.27,NE,36,5.3,9.2,48,0.00,CLR,,0.00,WeatherDisplay:10.37,2013-05-14 15:33:00,
2013-05-14 11:38:00,63.2,42.1,30.27,NE,37,5.4,8.1,46,0.00,CLR,,0.00,WeatherDisplay:10.37,2013-05-14 15:38:00,
2013-05-14 11:43:00,63.5,44.5,30.27,ENE,66,5.3,8.1,50,0.00,CLR,,0.00,WeatherDisplay:10.37,2013-05-14 15:43:00,
2013-05-14 11:48:00,63.9,39.7,30.27,NE,53,7.2,9.2,41,0.00,CLR,,0.00,WeatherDisplay:10.37,2013-05-14 15:48:00,
2013-05-14 11:53:00,64.5,41.5,30.26,ENE,64,4.5,5.8,43,0.00,CLR,,0.00,WeatherDisplay:10.37,2013-05-14 15:53:00,
2013-05-14 11:58:00,64.1,41.7,30.27,East,79,3.5,4.6,44,0.00,CLR,,0.00,WeatherDisplay:10.37,2013-05-14 15:58:00,
2013-05-14 12:03:00,64.5,40.3,30.27,NE,44,3.0,4.6,41,0.00,CLR,,0.00,WeatherDisplay:10.37,2013-05-14 16:03:00,
2013-05-14 12:08:00,65.0,40.7,30.27,East,80,6.8,9.2,41,0.00,CLR,,0.00,WeatherDisplay:10.37,2013-05-14 16:08:00,
2013-05-14 12:13:00,65.6,41.3,30.27,NE,50,4.2,5.8,41,0.00,CLR,,0.00,WeatherDisplay:10.37,2013-05-14 16:13:00,
2013-05-14 12:18:00,65.5,37.8,30.27,NNE,12,0.8,2.3,36,0.00,CLR,,0.00,WeatherDisplay:10.37,2013-05-14 16:18:00,
2013-05-14 12:23:00,65.4,39.1,30.25,ENE,70,2.8,3.7,38,0.00,CLR,,0.00,WeatherDisplay:10.37,2013-05-14 16:23:00,
2013-05-14 12:28:00,66.2,43.0,30.26,NE,44,4.8,5.8,43,0.00,CLR,,0.00,WeatherDisplay:10.37,2013-05-14 16:28:00,
2013-05-14 12:33:00,66.0,37.5,30.25,ESE,113,0.3,2.3,35,0.00,CLR,,0.00,WeatherDisplay:10.37,2013-05-14 16:33:00,
2013-05-14 12:38:00,66.6,40.9,30.25,East,81,4.3,5.8,39,0.00,CLR,,0.00,WeatherDisplay:10.37,2013-05-14 16:38:00,
2013-05-14 12:43:00,66.5,41.4,30.25,ENE,67,2.6,4.6,40,0.00,CLR,,0.00,WeatherDisplay:10.37,2013-05-14 16:43:00,
2013-05-14 12:48:00,67.3,43.4,30.25,NE,43,2.1,6.1,42,0.00,CLR,,0.00,WeatherDisplay:10.37,2013-05-14 16:48:00,
2013-05-14 12:53:00,67.3,42.1,30.24,ENE,76,2.9,6.1,40,0.00,CLR,,0.00,WeatherDisplay:10.37,2013-05-14 16:53:00,
2013-05-14 12:58:00,67.4,45.9,30.25,NE,45,5.0,9.8,46,0.00,CLR,,0.00,WeatherDisplay:10.37,2013-05-14 16:58:00,
2013-05-14 13:03:00,67.3,44.0,30.24,East,87,3.2,3.5,43,0.00,CLR,,0.00,WeatherDisplay:10.37,2013-05-14 17:03:00,
2013-05-14 13:08:00,66.6,41.5,30.24,WSW,258,0.0,0.0,40,0.00,CLR,,0.00,WeatherDisplay:10.37,2013-05-14 17:08:00,
2013-05-14 13:13:00,67.9,45.2,30.24,ENE,63,7.0,9.2,44,0.00,CLR,,0.00,WeatherDisplay:10.37,2013-05-14 17:13:00,
2013-05-14 13:18:00,68.3,45.5,30.24,ENE,65,2.9,5.8,44,0.00,CLR,,0.00,WeatherDisplay:10.37,2013-05-14 17:18:00,
2013-05-14 13:23:00,68.9,42.2,30.23,WNW,301,1.8,4.6,38,0.00,CLR,,0.00,WeatherDisplay:10.37,2013-05-14 17:23:00,
2013-05-14 13:28:00,68.7,42.1,30.23,ESE,105,0.2,1.1,38,0.00,CLR,,0.00,WeatherDisplay:10.37,2013-05-14 17:28:00,
2013-05-14 13:33:00,69.0,41.6,30.23,East,82,0.8,3.5,37,0.00,CLR,,0.00,WeatherDisplay:10.37,2013-05-14 17:33:00,
2013-05-14 13:38:00,69.4,43.4,30.22,ENE,65,5.7,9.2,39,0.00,CLR,,0.00,WeatherDisplay:10.37,2013-05-14 17:38:00,
2013-05-14 13:43:00,69.4,41.3,30.22,NE,47,5.7,8.1,36,0.00,CLR,,0.00,WeatherDisplay:10.37,2013-05-14 17:43:00,
2013-05-14 13:48:00,69.2,44.5,30.22,NNE,29,5.3,5.8,41,0.00,CLR,,0.00,WeatherDisplay:10.37,2013-05-14 17:48:00,
2013-05-14 13:53:00,70.1,41.9,30.22,NE,39,4.3,11.0,36,0.00,CLR,,0.00,WeatherDisplay:10.37,2013-05-14 17:53:00,
2013-05-14 13:58:00,69.9,42.4,30.21,ENE,61,8.1,8.1,37,0.00,CLR,,0.00,WeatherDisplay:10.37,2013-05-14 17:58:00,
2013-05-14 14:03:00,70.4,44.9,30.21,NE,49,2.8,5.8,40,0.00,CLR,,0.00,WeatherDisplay:10.37,2013-05-14 18:03:00,
2013-05-14 14:08:00,70.6,42.3,30.21,ENE,77,4.0,6.9,36,0.00,CLR,,0.00,WeatherDisplay:10.37,2013-05-14 18:08:00,
2013-05-14 14:13:00,70.3,44.8,30.20,ENE,64,7.1,11.5,40,0.00,CLR,,0.00,WeatherDisplay:10.37,2013-05-14 18:13:00,
2013-05-14 14:18:00,70.3,42.8,30.20,East,87,2.0,6.1,37,0.00,CLR,,0.00,WeatherDisplay:10.37,2013-05-14 18:18:00,
2013-05-14 14:23:00,71.0,41.2,30.19,NE,44,3.3,5.8,34,0.00,CLR,,0.00,WeatherDisplay:10.37,2013-05-14 18:23:00,
2013-05-14 14:28:00,71.8,43.4,30.19,NE,34,6.3,13.8,36,0.00,CLR,,0.00,WeatherDisplay:10.37,2013-05-14 18:28:00,
2013-05-14 14:33:00,71.8,44.8,30.19,NE,56,7.4,7.4,38,0.00,CLR,,0.00,WeatherDisplay:10.37,2013-05-14 18:33:00,
2013-05-14 14:38:00,71.9,40.4,30.18,East,88,7.7,8.1,32,0.00,CLR,,0.00,WeatherDisplay:10.37,2013-05-14 18:38:00,
2013-05-14 14:43:00,71.9,41.2,30.18,ENE,76,0.9,5.8,33,0.00,CLR,,0.00,WeatherDisplay:10.37,2013-05-14 18:43:00,
2013-05-14 14:48:00,71.7,41.0,30.18,NE,39,4.0,9.2,33,0.00,CLR,,0.00,WeatherDisplay:10.37,2013-05-14 18:48:00,
2013-05-14 14:53:00,72.1,42.2,30.18,NNE,24,3.9,5.8,34,0.00,CLR,,0.00,WeatherDisplay:10.37,2013-05-14 18:53:00,
2013-05-14 14:58:00,72.3,41.6,30.18,NE,39,4.8,5.8,33,0.00,CLR,,0.00,WeatherDisplay:10.37,2013-05-14 18:58:00,
2013-05-14 15:03:00,72.4,46.0,30.18,NE,52,4.3,4.6,39,0.00,CLR,,0.00,WeatherDisplay:10.37,2013-05-14 19:03:00,
2013-05-14 15:08:00,72.5,43.3,30.18,ENE,66,4.8,4.9,35,0.00,CLR,,0.00,WeatherDisplay:10.37,2013-05-14 19:08:00,
2013-05-14 15:13:00,72.4,42.4,30.18,ENE,69,4.6,8.1,34,0.00,CLR,,0.00,WeatherDisplay:10.37,2013-05-14 19:13:00,
2013-05-14 15:19:00,72.3,45.3,30.18,East,79,1.0,3.5,38,0.00,CLR,,0.00,WeatherDisplay:10.37,2013-05-14 19:19:00,
2013-05-14 15:24:00,72.0,41.3,30.17,ENE,58,0.1,4.6,33,0.00,CLR,,0.00,WeatherDisplay:10.37,2013-05-14 19:24:00,
2013-05-14 15:29:00,73.0,43.0,30.17,ENE,66,6.0,11.5,34,0.00,CLR,,0.00,WeatherDisplay:10.37,2013-05-14 19:29:00,
2013-05-14 15:34:00,73.4,42.5,30.17,NE,41,5.1,8.5,33,0.00,CLR,,0.00,WeatherDisplay:10.37,2013-05-14 19:34:00,
2013-05-14 15:39:00,73.3,44.0,30.17,ENE,62,4.7,9.2,35,0.00,CLR,,0.00,WeatherDisplay:10.37,2013-05-14 19:39:00,
2013-05-14 15:44:00,73.2,42.4,30.17,NNE,21,5.2,6.1,33,0.00,CLR,,0.00,WeatherDisplay:10.37,2013-05-14 19:44:00,
2013-05-14 15:49:00,73.1,44.5,30.17,ENE,69,3.7,8.1,36,0.00,CLR,,0.00,WeatherDisplay:10.37,2013-05-14 19:49:00,
2013-05-14 15:54:00,72.8,46.4,30.16,ENE,74,4.3,4.3,39,0.00,CLR,,0.00,WeatherDisplay:10.37,2013-05-14 19:54:00,
2013-05-14 15:59:00,73.1,42.3,30.16,ESE,111,0.1,1.1,33,0.00,CLR,,0.00,WeatherDisplay:10.37,2013-05-14 19:59:00,
2013-05-14 16:04:00,73.3,43.2,30.16,NE,52,6.9,9.2,34,0.00,CLR,,0.00,WeatherDisplay:10.37,2013-05-14 20:04:00,
2013-05-14 16:09:00,73.2,46.1,30.15,NE,54,4.0,6.1,38,0.00,CLR,,0.00,WeatherDisplay:10.37,2013-05-14 20:09:00,
2013-05-14 16:14:00,73.9,43.0,30.15,NE,43,4.8,4.8,33,0.00,CLR,,0.00,WeatherDisplay:10.37,2013-05-14 20:14:00,
2013-05-14 16:19:00,73.8,42.1,30.15,NNE,21,1.8,3.5,32,0.00,CLR,,0.00,WeatherDisplay:10.37,2013-05-14 20:19:00,
2013-05-14 16:24:00,73.4,43.3,30.15,NE,45,7.9,7.9,34,0.00,CLR,,0.00,WeatherDisplay:10.37,2013-05-14 20:24:00,
2013-05-14 16:29:00,73.5,43.4,30.15,NE,40,0.6,3.5,34,0.00,CLR,,0.00,WeatherDisplay:10.37,2013-05-14 20:29:00,
2013-05-14 16:34:00,73.3,42.4,30.15,East,91,2.0,5.8,33,0.00,CLR,,0.00,WeatherDisplay:10.37,2013-05-14 20:34:00,
2013-05-14 16:39:00,72.9,43.6,30.15,ENE,71,3.0,3.5,35,0.00,CLR,,0.00,WeatherDisplay:10.37,2013-05-14 20:39:00,
2013-05-14 16:44:00,73.0,43.0,30.15,ENE,61,2.1,4.9,34,0.00,CLR,,0.00,WeatherDisplay:10.37,2013-05-14 20:44:00,
2013-05-14 16:49:00,72.9,43.6,30.15,NE,56,1.6,2.4,35,0.00,CLR,,0.00,WeatherDisplay:10.37,2013-05-14 20:49:00,
2013-05-14 16:54:00,72.7,45.6,30.14,East,93,1.4,5.8,38,0.00,CLR,,0.00,WeatherDisplay:10.37,2013-05-14 20:54:00,
2013-05-14 16:59:00,72.9,45.8,30.14,ENE,60,4.1,4.1,38,0.00,CLR,,0.00,WeatherDisplay:10.37,2013-05-14 20:59:00,
2013-05-14 17:04:00,73.3,45.4,30.14,NNE,33,3.0,3.7,37,0.00,CLR,,0.00,WeatherDisplay:10.37,2013-05-14 21:04:00,
2013-05-14 17:09:00,73.1,47.3,30.14,NE,55,2.9,3.5,40,0.00,CLR,,0.00,WeatherDisplay:10.37,2013-05-14 21:09:00,
2013-05-14 17:14:00,73.2,44.6,30.14,NE,40,4.6,6.9,36,0.00,CLR,,0.00,WeatherDisplay:10.37,2013-05-14 21:14:00,
2013-05-14 17:19:00,73.1,46.0,30.14,ENE,62,6.1,8.1,38,0.00,CLR,,0.00,WeatherDisplay:10.37,2013-05-14 21:19:00,
2013-05-14 17:24:00,72.8,45.0,30.14,NNE,12,6.1,8.1,37,0.00,CLR,,0.00,WeatherDisplay:10.37,2013-05-14 21:24:00,
2013-05-14 17:29:00,72.6,45.5,30.14,ENE,71,2.8,3.7,38,0.00,CLR,,0.00,WeatherDisplay:10.37,2013-05-14 21:29:00,
2013-05-14 17:34:00,72.6,45.5,30.14,NE,55,3.7,5.8,38,0.00,CLR,,0.00,WeatherDisplay:10.37,2013-05-14 21:34:00,
2013-05-14 17:39:00,72.5,45.4,30.14,NE,40,1.9,3.5,38,0.00,CLR,,0.00,WeatherDisplay:10.37,2013-05-14 21:39:00,
2013-05-14 17:44:00,72.1,45.8,30.14,NE,50,3.6,4.6,39,0.00,CLR,,0.00,WeatherDisplay:10.37,2013-05-14 21:44:00,
2013-05-14 17:49:00,71.9,48.2,30.14,ENE,66,3.4,4.9,43,0.00,CLR,,0.00,WeatherDisplay:10.37,2013-05-14 21:49:00,
2013-05-14 17:54:00,71.4,45.8,30.14,NE,44,1.9,4.6,40,0.00,CLR,,0.00,WeatherDisplay:10.37,2013-05-14 21:54:00,
2013-05-14 17:59:00,70.3,48.5,30.14,North,355,1.9,2.3,46,0.00,CLR,,0.00,WeatherDisplay:10.37,2013-05-14 21:59:00,
2013-05-14 18:04:00,69.4,47.7,30.14,SE,124,0.0,1.2,46,0.00,CLR,,0.00,WeatherDisplay:10.37,2013-05-14 22:04:00,
2013-05-14 18:09:00,68.7,45.3,30.14,East,90,0.2,2.3,43,0.00,CLR,,0.00,WeatherDisplay:10.37,2013-05-14 22:09:00,
2013-05-14 18:14:00,68.8,47.2,30.14,NNW,343,1.6,3.5,46,0.00,CLR,,0.00,WeatherDisplay:10.37,2013-05-14 22:14:00,
2013-05-14 18:19:00,68.0,48.7,30.14,NNW,343,0.1,1.2,50,0.00,CLR,,0.00,WeatherDisplay:10.37,2013-05-14 22:19:00,
2013-05-14 18:24:00,67.2,48.5,30.14,NNW,343,0.0,0.0,51,0.00,CLR,,0.00,WeatherDisplay:10.37,2013-05-14 22:24:00,
2013-05-14 18:29:00,66.8,47.6,30.14,NNE,24,1.8,4.6,50,0.00,CLR,,0.00,WeatherDisplay:10.37,2013-05-14 22:29:00,
2013-05-14 18:34:00,66.8,48.1,30.14,NNE,29,0.0,1.2,51,0.00,CLR,,0.00,WeatherDisplay:10.37,2013-05-14 22:34:00,
2013-05-14 18:39:00,66.3,49.6,30.14,NNE,29,0.0,0.0,55,0.00,CLR,,0.00,WeatherDisplay:10.37,2013-05-14 22:39:00,
2013-05-14 18:44:00,65.8,50.1,30.14,NNE,29,0.0,0.0,57,0.00,CLR,,0.00,WeatherDisplay:10.37,2013-05-14 22:44:00,
2013-05-14 18:49:00,65.4,49.8,30.14,NNE,28,0.0,0.0,57,0.00,CLR,,0.00,WeatherDisplay:10.37,2013-05-14 22:49:00,
2013-05-14 18:54:00,65.1,50.9,30.14,NNE,29,0.0,0.0,60,0.00,CLR,,0.00,WeatherDisplay:10.37,2013-05-14 22:54:00,
2013-05-14 18:59:00,64.5,50.7,30.14,NNE,29,0.0,1.1,61,0.00,CLR,,0.00,WeatherDisplay:10.37,2013-05-14 22:59:00,
2013-05-14 19:04:00,64.0,51.1,30.14,WNW,291,0.5,2.3,63,0.00,CLR,,0.00,WeatherDisplay:10.37,2013-05-14 23:04:00,
2013-05-14 19:09:00,63.4,50.6,30.14,WNW,291,0.0,0.0,63,0.00,CLR,,0.00,WeatherDisplay:10.37,2013-05-14 23:09:00,
2013-05-14 19:14:00,63.2,50.8,30.14,WNW,291,0.0,1.1,64,0.00,CLR,,0.00,WeatherDisplay:10.37,2013-05-14 23:14:00,
2013-05-14 19:19:00,62.9,51.0,30.14,WNW,291,0.0,1.1,65,0.00,CLR,,0.00,WeatherDisplay:10.37,2013-05-14 23:19:00,
2013-05-14 19:24:00,62.5,51.0,30.14,WNW,291,0.0,0.0,66,0.00,CLR,,0.00,WeatherDisplay:10.37,2013-05-14 23:24:00,
2013-05-14 19:29:00,62.1,51.0,30.14,WNW,291,0.0,0.0,67,0.00,CLR,,0.00,WeatherDisplay:10.37,2013-05-14 23:29:00,
2013-05-14 19:34:00,61.8,50.7,30.14,WNW,291,0.0,1.1,67,0.00,CLR,,0.00,WeatherDisplay:10.37,2013-05-14 23:34:00,
2013-05-14 19:39:00,61.4,50.7,30.14,WNW,291,0.0,1.1,68,0.00,CLR,,0.00,WeatherDisplay:10.37,2013-05-14 23:39:00,
2013-05-14 19:44:00,61.4,50.3,30.14,WNW,291,0.3,2.4,67,0.00,CLR,,0.00,WeatherDisplay:10.37,2013-05-14 23:44:00,
2013-05-14 19:49:00,61.2,50.9,30.14,WNW,285,0.0,0.0,69,0.00,CLR,,0.00,WeatherDisplay:10.37,2013-05-14 23:49:00,
2013-05-14 19:54:00,60.8,50.6,30.14,WNW,285,0.0,0.0,69,0.00,CLR,,0.00,WeatherDisplay:10.37,2013-05-14 23:54:00,
2013-05-14 19:59:00,60.4,50.6,30.14,WNW,285,0.0,0.0,70,0.00,CLR,,0.00,WeatherDisplay:10.37,2013-05-14 23:59:00,
2013-05-14 20:04:00,60.1,50.3,30.14,WNW,285,0.0,0.0,70,0.00,CLR,,0.00,WeatherDisplay:10.37,2013-05-15 00:04:00,
2013-05-14 20:09:00,59.9,50.5,30.14,WNW,285,0.0,1.1,71,0.00,CLR,,0.00,WeatherDisplay:10.37,2013-05-15 00:09:00,
2013-05-14 20:14:00,59.7,50.3,30.14,WNW,285,0.1,0.0,71,0.00,CLR,,0.00,WeatherDisplay:10.37,2013-05-15 00:14:00,
2013-05-14 20:19:00,59.6,50.9,30.14,WNW,285,0.0,0.0,73,0.00,CLR,,0.00,WeatherDisplay:10.37,2013-05-15 00:19:00,
2013-05-14 20:24:00,59.5,50.5,30.14,WNW,285,0.0,0.0,72,0.00,CLR,,0.00,WeatherDisplay:10.37,2013-05-15 00:24:00,
2013-05-14 20:29:00,59.1,49.3,30.14,WNW,285,0.0,0.0,70,0.00,CLR,,0.00,WeatherDisplay:10.37,2013-05-15 00:29:00,
2013-05-14 20:34:00,59.0,50.0,30.14,WNW,285,0.0,0.0,72,0.00,CLR,,0.00,WeatherDisplay:10.37,2013-05-15 00:34:00,
2013-05-14 20:39:00,58.9,49.9,30.14,WNW,285,0.0,0.0,72,0.00,CLR,,0.00,WeatherDisplay:10.37,2013-05-15 00:39:00,
2013-05-14 20:44:00,58.6,49.6,30.14,WNW,285,0.0,0.0,72,0.00,CLR,,0.00,WeatherDisplay:10.37,2013-05-15 00:44:00,
2013-05-14 20:49:00,58.3,49.3,30.14,WNW,285,0.0,0.0,72,0.00,CLR,,0.00,WeatherDisplay:10.37,2013-05-15 00:49:00,
2013-05-14 20:55:00,58.0,49.4,30.14,WNW,285,0.0,0.0,73,0.00,CLR,,0.00,WeatherDisplay:10.37,2013-05-15 00:55:00,
2013-05-14 21:00:00,57.8,48.8,30.14,WNW,285,0.0,0.0,72,0.00,CLR,,0.00,WeatherDisplay:10.37,2013-05-15 01:00:00,
2013-05-14 21:05:00,57.5,49.3,30.14,WNW,285,0.0,0.0,74,0.00,CLR,,0.00,WeatherDisplay:10.37,2013-05-15 01:05:00,
2013-05-14 21:10:00,57.2,48.6,30.14,WNW,285,0.0,0.0,73,0.00,CLR,,0.00,WeatherDisplay:10.37,2013-05-15 01:10:00,
2013-05-14 21:15:00,57.0,49.2,30.14,WNW,285,0.0,1.1,75,0.00,CLR,,0.00,WeatherDisplay:10.37,2013-05-15 01:15:00,
2013-05-14 21:20:00,56.9,49.1,30.14,WNW,285,0.0,0.0,75,0.00,CLR,,0.00,WeatherDisplay:10.37,2013-05-15 01:20:00,
2013-05-14 21:25:00,56.7,48.9,30.14,WNW,285,0.0,0.0,75,0.00,CLR,,0.00,WeatherDisplay:10.37,2013-05-15 01:25:00,
2013-05-14 21:30:00,56.6,48.8,30.14,WNW,285,0.0,0.0,75,0.00,CLR,,0.00,WeatherDisplay:10.37,2013-05-15 01:30:00,
2013-05-14 21:35:00,56.4,49.0,30.14,WNW,285,0.0,0.0,76,0.00,CLR,,0.00,WeatherDisplay:10.37,2013-05-15 01:35:00,
2013-05-14 21:40:00,56.3,48.5,30.14,WNW,285,0.0,1.1,75,0.00,CLR,,0.00,WeatherDisplay:10.37,2013-05-15 01:40:00,
2013-05-14 21:45:00,56.2,48.7,30.15,WNW,285,0.0,0.0,76,0.00,CLR,,0.00,WeatherDisplay:10.37,2013-05-15 01:45:00,
2013-05-14 21:50:00,56.1,49.0,30.15,WNW,285,0.0,0.0,77,0.00,CLR,,0.00,WeatherDisplay:10.37,2013-05-15 01:50:00,
2013-05-14 21:55:00,55.9,48.8,30.15,WNW,285,0.0,0.0,77,0.00,CLR,,0.00,WeatherDisplay:10.37,2013-05-15 01:55:00,
2013-05-14 22:00:00,55.8,49.0,30.15,WNW,285,0.0,1.1,78,0.00,CLR,,0.00,WeatherDisplay:10.37,2013-05-15 02:00:00,
2013-05-14 22:05:00,55.7,48.6,30.15,WNW,285,0.0,0.0,77,0.00,CLR,,0.00,WeatherDisplay:10.37,2013-05-15 02:05:00,
2013-05-14 22:10:00,55.5,49.1,30.15,WNW,285,0.0,0.0,79,0.00,CLR,,0.00,WeatherDisplay:10.37,2013-05-15 02:10:00,
2013-05-14 22:15:00,55.4,49.0,30.15,WNW,285,0.0,0.0,79,0.00,CLR,,0.00,WeatherDisplay:10.37,2013-05-15 02:15:00,
2013-05-14 22:20:00,55.3,48.9,30.15,WNW,285,0.0,0.0,79,0.00,CLR,,0.00,WeatherDisplay:10.37,2013-05-15 02:20:00,
2013-05-14 22:25:00,55.1,48.7,30.15,WNW,285,0.0,0.0,79,0.00,CLR,,0.00,WeatherDisplay:10.37,2013-05-15 02:25:00,
2013-05-14 22:30:00,54.9,48.8,30.15,WNW,285,0.0,0.0,80,0.00,CLR,,0.00,WeatherDisplay:10.37,2013-05-15 02:30:00,
2013-05-14 22:35:00,54.8,48.7,30.15,WNW,285,0.0,0.0,80,0.00,CLR,,0.00,WeatherDisplay:10.37,2013-05-15 02:35:00,
2013-05-14 22:40:00,54.7,49.0,30.15,WNW,285,0.0,0.0,81,0.00,CLR,,0.00,WeatherDisplay:10.37,2013-05-15 02:40:00,
2013-05-14 22:45:00,54.7,49.3,30.15,WNW,285,0.0,1.2,82,0.00,CLR,,0.00,WeatherDisplay:10.37,2013-05-15 02:45:00,
2013-05-14 22:50:00,54.5,49.1,30.15,WNW,285,0.0,0.0,82,0.00,CLR,,0.00,WeatherDisplay:10.37,2013-05-15 02:50:00,
2013-05-14 22:55:00,54.6,49.2,30.15,WNW,285,0.0,0.0,82,0.00,CLR,,0.00,WeatherDisplay:10.37,2013-05-15 02:55:00,
2013-05-14 23:00:00,54.6,49.2,30.15,WNW,285,0.0,1.1,82,0.00,CLR,,0.00,WeatherDisplay:10.37,2013-05-15 03:00:00,
2013-05-14 23:05:00,54.5,49.1,30.15,WNW,285,0.0,0.0,82,0.00,CLR,,0.00,WeatherDisplay:10.37,2013-05-15 03:05:00,
2013-05-14 23:10:00,54.3,48.9,30.14,WNW,285,0.0,1.1,82,0.00,CLR,,0.00,WeatherDisplay:10.37,2013-05-15 03:10:00,
2013-05-14 23:15:00,54.2,49.1,30.14,WNW,285,0.0,0.0,83,0.00,CLR,,0.00,WeatherDisplay:10.37,2013-05-15 03:15:00,
2013-05-14 23:20:00,54.1,49.1,30.14,WNW,285,0.0,0.0,83,0.00,CLR,,0.00,WeatherDisplay:10.37,2013-05-15 03:20:00,
2013-05-14 23:25:00,54.0,49.0,30.15,WNW,285,0.0,0.0,83,0.00,CLR,,0.00,WeatherDisplay:10.37,2013-05-15 03:25:00,
2013-05-14 23:30:00,53.9,49.2,30.15,North,6,0.0,1.1,84,0.00,CLR,,0.00,WeatherDisplay:10.37,2013-05-15 03:30:00,
2013-05-14 23:35:00,53.7,49.0,30.15,North,6,0.0,0.0,84,0.00,CLR,,0.00,WeatherDisplay:10.37,2013-05-15 03:35:00,
2013-05-14 23:40:00,53.5,48.8,30.14,North,6,0.0,0.0,84,0.00,CLR,,0.00,WeatherDisplay:10.37,2013-05-15 03:40:00,
2013-05-14 23:45:00,53.4,48.7,30.14,North,6,0.0,0.0,84,0.00,CLR,,0.00,WeatherDisplay:10.37,2013-05-15 03:45:00,
2013-05-14 23:50:00,53.3,48.6,30.14,North,6,0.0,0.0,84,0.00,CLR,,0.00,WeatherDisplay:10.37,2013-05-15 03:50:00,
2013-05-14 23:55:00,53.2,48.8,30.14,North,6,0.0,1.2,85,0.00,CLR,,0.00,WeatherDisplay:10.37,2013-05-15 03:55:00,